Regional Weather Roundup
Issued by NWS

Home | Current Version | Previous Version | Graphics & Text | Print | Product List | Glossary On
Versions: 1 2 3 4 5 6 7 8 9 10 11 12 13 14 15 16 17 18 19 20 21 22 23 24 25 26 27 28 29 30 31 32 33 34 35 36 37 38 39 40 41 42 43 44 45
000
ASUS45 KBOU 261107
RWRCO

WEATHER ROUNDUP FOR COLORADO
NATIONAL WEATHER SERVICE DENVER/BOULDER CO
400 AM MST FRI DEC 26 2014

NOTE: "FAIR" INDICATES FEW OR NO CLOUDS BELOW 12000 FEET WITH NO
SIGNIFICANT WEATHER AND/OR OBSTRUCTIONS TO VISIBILITY.

COZ001>005-013-030-031-261200-
...NORTHWEST COLORADO...

CITY           SKY/WX    TMP DP  RH WIND       PRES   REMARKS
CRAIG          CLOUDY    18  15  88 W6        29.73S WCI  10
HAYDEN         CLOUDY    18  14  86 NW8       29.70R WCI   7
MEEKER         FLURRIES  20  16  84 SW7       29.71R WCI  11
MOUNT WERNER   NOT AVBL
STEAMBOAT SPGS NOT AVBL
WALDEN         NOT AVBL
$$

COZ006>008-011-261200-
...WEST CENTRAL VALLEYS...

CITY           SKY/WX    TMP DP  RH WIND       PRES   REMARKS
GRAND JUNCTION FLURRIES  25  24  96 N5        29.74S WCI  19
MONTROSE       CLOUDY    25  22  88 N9        29.73S WCI  15
EAGLE          CLOUDY    21  21 100 CALM      29.70R
RIFLE          CLOUDY    24  21  88 W3        29.72S
DELTA          CLOUDY    28  26  90 CALM      29.75R
NUCLA          CLOUDY    23  21  93 E6        29.75S WCI  16
$$

COZ017>023-064>068-261200-
...SOUTHWEST COLORADO...

CITY           SKY/WX    TMP DP  RH WIND       PRES   REMARKS
DURANGO        CLOUDY    22  20  92 W3        29.67F
CORTEZ         LGT SNOW  21  19  92 CALM      29.71S VSB 3/4
PAGOSA SPRINGS CLOUDY    20  20  98 CALM      29.66S
TELLURIDE      CLOUDY    15   7  72 E6        29.64S WCI   6
WOLF CREEK PAS NOT AVBL
$$

COZ009-010-012-014-032>034-037-058>063-261200-
...CENTRAL COLORADO...

CITY           SKY/WX    TMP DP  RH WIND       PRES   REMARKS
ASPEN          SNOW      20  18  92 N5        29.63R VSB 1/2 WCI  13
BUENA VISTA    LGT SNOW  16  11  81 NE9       29.70S VSB 1   WCI   4
COPPER MTN     NOT AVBL
BERTHOUD PASS  NOT AVBL
COTTONWOOD PAS NOT AVBL
GUNNISON       CLOUDY    12   3  67 CALM      29.69S
KREMMLING      NOT AVBL
LEADVILLE      LGT SNOW   9   6  88 S6        29.59R FOG     WCI  -1
SALIDA         CLOUDY    20  18  90 NE5       29.78R WCI  14
SUNLIGHT       NOT AVBL
WILKERSON PASS NOT AVBL
$$

COZ069>075-261200-
...SAN LUIS VALLEY/SANGRE DE CRISTO MOUNTAINS...

CITY           SKY/WX    TMP DP  RH WIND       PRES   REMARKS
ALAMOSA        MOCLDY    16  12  84 SE8       29.65R WCI   5
LA VETA PASS   NOT AVBL
SAGUACHE       NOT AVBL
$$

COZ035-036-038>040-261200-
...NORTHERN COLORADO FRONT RANGE...

CITY           SKY/WX    TMP DP  RH WIND       PRES   REMARKS
DENVER INTL AP SNOW      17  15  92 N8        29.88R VSB 1/2 WCI   7
DMNS CITY PARK   N/A     18  16  93 NE6       29.89S WCI  10
AURORA         LGT SNOW  16  16  99 N5        29.87S FOG     WCI   9
FRONT RANGE AP NOT AVBL
ERIE MUNI ARPT NOT AVBL
BOULDER MUN AP NOT AVBL
CENTENNIAL     LGT SNOW  16  15  96 N6        29.85S VSB 1   WCI   7
BROOMFIELD     NOT AVBL
FORT COLLINS   MOCLDY    19  14  79 NE7       29.92S WCI  10
LONGMONT       NOT AVBL
$$

COZ041-046-047-076>085-087-088-261200-
...PIKES PEAK/PALMER DIVIDE AND SOUTHERN FOOTHILLS...

CITY           SKY/WX    TMP DP  RH WIND       PRES   REMARKS
COLO. SPRINGS  CLOUDY    19  10  68 N13       29.80R WCI   6
A. F. ACADEMY  FLURRIES  15   9  77 N16       29.78S WCI  -1
ELLICOTT       NOT AVBL
FALCON         NOT AVBL
FORT CARSON    CLOUDY    19  10  68 N18G25    29.78R WCI   4
LIMON          CLOUDY    17  16  95 N20       29.84R WCI   1
MONUMENT HILL  NOT AVBL
TRINIDAD       LGT SNOW  22  19  89 N10       29.79S VSB 1   WCI  11
$$

COZ042>045-048>051-090-091-261200-
...NORTHEAST COLORADO...

CITY           SKY/WX    TMP DP  RH WIND       PRES   REMARKS
GREELEY ARPT   MOCLDY    18  12  79 N6        29.92S WCI   9
AKRON          CLOUDY    19  17  92 N16       29.88S WCI   4
BURLINGTON     CLOUDY    22  19  89 N22G29    29.85S WCI   6
WRAY           CLOUDY    25  22  89 N15       29.92S WCI  12
STERLING       NOT AVBL
HOLYOKE        NOT AVBL
FORT MORGAN    CLOUDY    20  17  88 N7        29.92R WCI  11
$$

COZ086-089-092>099-261200-
...SOUTHEAST COLORADO...

CITY           SKY/WX    TMP DP  RH WIND       PRES   REMARKS
PUEBLO         CLOUDY    25  15  66 NE9       29.86R WCI  15
LA JUNTA       FLURRIES  26  23  88 N7        29.86F WCI  18
LAMAR          CLOUDY    28  22  78 NE12      29.86R WCI  18
SPRINGFIELD      N/A     24  23  96 N16       29.82R WCI  11
$$



USA.gov is the U.S. government's official web portal to all federal, state and local government web resources and services.